Regional Weather Roundup
Issued by NWS Sterling, VA

Current Version | Previous Version | Text Only | Print | Product List | Glossary On
Versions: 1 2 3 4 5 6 7 8 9 10 11 12 13 14 15 16 17 18 19 20 21 22 23 24 25 26 27 28
000
ASUS41 KLWX 240111
RWRLWX

REGIONAL WEATHER ROUNDUP
NATIONAL WEATHER SERVICE BALTIMORE MD/WASHINGTON DC
900 PM EDT MON OCT 23 2017

Note: "FAIR" indicates few or no clouds below 12,000 feet
with no significant weather and/or obstructions to visibility.
 TC=TEMPERATURE CELSIUS

 * =Non NWS site. Station does not report precipitation (e.g. rain,
    snow, etc.), thunder, or fog.

DCZ001-MDZ009-015-VAZ040>042-051-053>054-240200-
WASHINGTON METRO

CITY           SKY/WX    TMP DP  RH WIND       PRES   REMARKS
WASHINGTON NAT CLOUDY    73  66  78 SE14G24   29.88F
DULLES         CLOUDY    72  66  81 SE18      29.86S
ANDREWS AFB    CLOUDY    71  64  79 SE14G26   29.87F
FT BELVOIR     CLOUDY    72  64  78 SE12      29.87S
QUANTICO       CLOUDY    73  67  81 S18       29.87F
COLLEGE PARK*  CLOUDY    71  64  78 SE8       29.89S
LEESBURG*      CLOUDY    72  68  88 SE13G18   29.87F
MANASSAS*      CLOUDY    71  65  81 SE16      29.85F
GAITHERSBURG*  CLOUDY    70  64  81 SE15G23   29.89F

$$

MDZ006>007-011-014-240200-
BALTIMORE METRO

CITY           SKY/WX    TMP DP  RH WIND       PRES   REMARKS
BWI AIRPORT    CLOUDY    71  65  81 SE10G22   29.90F
MD SCIENCE CTR   N/A     72  65  78 MISG      29.92F
MARTIN STATE   MOCLDY    72  66  83 E14G22    29.93F
ANNAPOLIS      CLOUDY    72  68  87 SE21      29.91F
FORT MEADE*    CLOUDY    70  63  78 SE10G17   29.93F

$$

MDZ012-015-019>023-240200-
MARYLAND EASTERN SHORE

CITY           SKY/WX    TMP DP  RH WIND       PRES   REMARKS
OCEAN CITY     CLOUDY    70  67  90 S9G17     30.00F
SALISBURY      CLOUDY    70  67  90 SE9       29.97S
CAMBRIDGE*     MOCLDY    72  66  83 SE18G30   29.93F
EASTON*        MOCLDY    72  64  78 SE16G24   29.97F

$$

MDZ017>025-240200-
SOUTHERN MARYLAND

CITY           SKY/WX    TMP DP  RH WIND       PRES   REMARKS
PATUXENT RIVER CLOUDY    71  67  87 SE15G23   29.89F
ST INIGOES     CLOUDY    72  66  81 SE9G31    29.89F
LEONARDTOWN*   NOT AVBL

$$

MDZ003>005-240200-
NORTH CENTRAL MARYLAND

CITY           SKY/WX    TMP DP  RH WIND       PRES   REMARKS
FREDERICK*     NOT AVBL
HAGERSTOWN APT CLOUDY    71  63  75 S21G31    29.85F
WESTMINSTER*   CLOUDY    70  64  83 SE15G21   29.90F

$$

MDZ501>502-240200-
WESTERN MARYLAND

CITY           SKY/WX    TMP DP  RH WIND       PRES   REMARKS
OAKLAND*       CLOUDY    52  52 100 E12       29.78F
CUMBERLAND*    CLOUDY    70  61  73 SE9       29.83F

$$

VAZ025>031-240200-
SHENANDOAH VALLEY

CITY           SKY/WX    TMP DP  RH WIND       PRES   REMARKS
WINCHESTER*    CLOUDY    68  61  77 SE10      29.83F
FRONT ROYAL*   CLOUDY    72  61  68 S9G18     29.80F
LURAY*         RAIN      68  61  77 S7G21     29.81F
NEW MARKET*    CLOUDY    65  62  88 S6        29.79F
STAUNTON*      LGT RAIN  64  62  92 S6        29.80F
WAYNESBORO*    CLOUDY    63  63  99 SE14G21   29.78F

$$

WVZ021-048>050-054>055-240200-
EASTERN WEST VIRGINIA PANHANDLE

CITY           SKY/WX    TMP DP  RH WIND       PRES   REMARKS
MARTINSBURG    MOCLDY    70  61  73 SE13G20   29.83F
PETERSBURG*    HVY RAIN  64  60  89 CALM      29.77F

$$

VAZ036>039-050-240200-
CENTRAL FOOTHILLS

CITY           SKY/WX    TMP DP  RH WIND       PRES   REMARKS
CHARLOTTESVILL RAIN      70  65  84 S8        29.81F
CULPEPER*      CLOUDY    72  63  73 SE5       29.83F
ORANGE*        CLOUDY    70  63  78 SE5       29.83F
GORDONSVILLE*  CLOUDY    71  64  80 SE5       29.82F
WARRENTON*     CLOUDY    72  62  71 SE12G20   29.83F

$$

VAZ055>057-240200-
NORTH AND CENTRAL PIEDMONT

CITY           SKY/WX    TMP DP  RH WIND       PRES   REMARKS
FREDERICKSBRG* CLOUDY    73  67  81 E12       29.83F
STAFFORD*      CLOUDY    71  67  88 SE8       29.89F

$$

NCZ024-NYZ072-PAZ021-071-VAZ022-071-240200-
OTHER REGIONAL OBSERVATIONS

CITY           SKY/WX    TMP DP  RH WIND       PRES   REMARKS
PHILADELPHIA   CLOUDY    70  65  84 SE10      30.00F
PITTSBURGH     LGT RAIN  56  56 100 SE12      29.76R FOG
ROANOKE        CLOUDY    59  57  93 SE7       29.81F
RICHMOND       CLOUDY    73  65  75 SE14      29.83F
RALEIGH        TSTM      73  67  81 S17G32    29.77F

$$

ANZ530>537-240200-
MARINE OBSERVATIONS

STATION/POSITION TIME  TEMP    WIND        PRES
                       AIR SEA DIR/SP/G
                 (UTC) (F)     (DEG/KT/KT) (MB)
THOMAS PT LIGHT  0100   72 68  140/ 23/ 26   N/A
BALT KEY BRIDGE  0048   70     130/ 16/ 17 1012.6F
COVE POINT       0048   71     160/ 26/ 31 1013.0F
LEWISETTA        0048          170/ 19/ 24 1011.6F
SOLOMONS ISLAND  0048          140/ 18/ 23 1012.0F

$$





USA.gov is the U.S. government's official web portal to all federal, state and local government web resources and services.